Home   Weather   Billings   Past weeks
Flag for USA

Past Weather in Billings, Montana, USA — Yesterday and Last 2 Weeks

Now
70 °F

Passing clouds.


Feels Like: 75 °F
Forecast: 73 / 45 °F
Wind: 7 mph from Southwest

Location: Billings Logan International Airport

Current Time: Oct 16, 2019 at 4:16:54 pm

Latest Report: Oct 16, 2019 at 2:53 pm


Visibility: 10 mi

Pressure: 29.86 "Hg (26.75 "Hg at 946m altitude)

Humidity: 22%

Dew Point: 29 °F

Location of BillingsLocation

Past Weather in Billings — Graph

°F

Billings Temperature Yesterday

Maximum temperature yesterday: 54 °F (at 3:53 pm)
Minimum temperature yesterday: 31 °F (at 6:53 am)
Average temperature yesterday: 43 °F

High & Low Weather Summary for the Past Weeks

 TemperatureHumidityPressure
High74 °F (Oct 8, 2:53 pm)100% (Oct 2, 2:53 am)30.55 "Hg (Oct 2, 2:53 am)
Low19 °F (Oct 10, 1:53 am)15% (Oct 8, 2:53 pm)29.49 "Hg (Oct 8, 3:53 pm)
Average42 °F61%30.09 "Hg
* Reported Oct 1 2:53 pm — Oct 16 2:53 pm, Billings. Weather by CustomWeather, © 2019

Note: Actual official high and low records may vary slightly from our data, if they occured in-between our weather recording intervals... More about our weather records

Advertising

Billings Weather History for the Previous 24 Hours

Scroll right to see more
 ConditionsComfort  
Time TempWeatherWind HumidityBarometerVisibility
2:53 pm
Wed, Oct 16
70 °FPassing clouds.7 mph22%29.86 "Hg10 mi
1:53 pm69 °FPassing clouds.7 mph21%29.89 "Hg10 mi
12:53 pm67 °FPassing clouds.14 mph24%29.92 "Hg10 mi
11:53 am64 °FScattered clouds.13 mph28%29.96 "Hg10 mi
10:53 am57 °FBroken clouds.13 mph39%29.99 "Hg10 mi
9:53 am53 °FPartly sunny.7 mph48%30.01 "Hg10 mi
8:53 am54 °FBroken clouds.7 mph38%29.98 "Hg10 mi
7:53 am53 °FPartly sunny.14 mph39%29.97 "Hg10 mi
6:53 am51 °FPassing clouds.16 mph44%29.96 "Hg10 mi
5:53 am50 °FPassing clouds.14 mph48%29.96 "Hg10 mi
4:53 am52 °FPassing clouds.14 mph43%29.96 "Hg10 mi
3:53 am51 °FPassing clouds.15 mph42%29.96 "Hg10 mi
2:53 am49 °FClear.14 mph46%29.98 "Hg10 mi
1:53 am48 °FPassing clouds.15 mph48%30.00 "Hg10 mi
12:53 am48 °FClear.13 mph48%30.02 "Hg10 mi
11:53 pm
Tue, Oct 15
47 °FClear.12 mph50%30.06 "Hg10 mi
10:53 pm46 °FPassing clouds.8 mph56%30.09 "Hg10 mi
9:53 pm47 °FPassing clouds.5 mph56%30.11 "Hg10 mi
8:53 pm47 °FPassing clouds.6 mph56%30.13 "Hg10 mi
7:53 pm48 °FPassing clouds.6 mph54%30.15 "Hg10 mi
6:53 pm50 °FPassing clouds.8 mph52%30.16 "Hg10 mi
5:53 pm52 °FPartly sunny.9 mph47%30.16 "Hg10 mi
4:53 pm54 °FScattered clouds.5 mph41%30.17 "Hg10 mi
Weather by CustomWeather, © 2019

See weather overview